RH
19 22 25 30 31 31 31 26 22 20 18 18 20 22 23 24 25 23 21 22 24 25 26 30 31 29 29 30 31 31 30 29 30 31 32 33 33 30 26 25 26 27 29
17 20 24 27 30 30 30 28 23 21 19 18 19 21 23 23 23 22 20 23 26 26 27 29 29 30 31 30 29 29 29 29 30 31 31 31 30 28 26 26 25 24 24
18 18 22 25 28 29 29 29 24 22 20 19 19 21 22 22 22 22 21 24 26 25 25 25 25 26 27 29 30 30 32 28 27 27 25 25 27 27 26 25 25 24 24
15 16 19 25 26 28 28 29 26 23 22 20 20 21 22 22 22 21 21 21 20 21 22 22 23 26 29 30 30 32 32 31 29 28 26 26 25 25 26 24 23 23 23
15 14 17 23 26 26 27 27 28 25 23 22 21 21 22 22 21 18 17 18 18 19 19 20 23 26 28 29 29 28 30 29 27 25 24 24 24 23 23 23 23 23 22
14 13 16 22 25 25 26 26 26 27 26 23 22 22 23 22 20 19 17 17 17 17 17 18 23 24 23 23 24 27 27 24 21 22 21 21 23 26 26 26 25 25 24
12 13 15 21 23 24 25 25 25 27 28 26 24 23 23 24 23 20 20 21 20 20 20 21 24 26 27 29 29 30 29 24 26 25 25 22 22 23 27 27 29 30 31
11 12 15 20 22 23 24 25 24 25 27 28 27 25 25 24 25 24 23 22 22 22 22 22 23 27 31 34 34 34 35 34 33 33 30 30 30 28 27 26 29 32 32
13 12 14 19 21 24 25 24 24 24 25 27 28 28 26 27 26 27 27 26 26 26 26 25 26 30 33 37 38 39 41 44 41 42 43 41 41 42 41 36 35 40 41
15 13 14 17 21 24 24 25 24 24 24 25 27 29 28 28 28 28 30 30 29 29 30 29 29 31 37 40 42 44 46 45 46 49 50 49 52 52 53 51 44 44 46
16 15 14 16 19 22 24 24 25 24 25 25 25 27 29 29 29 28 29 31 32 33 34 34 35 34 35 38 42 43 47 51 54 56 55 58 61 62 63 62 55 52 52
15 17 17 16 17 20 23 24 25 25 26 26 25 25 28 30 31 30 29 30 30 32 36 37 37 39 41 41 45 46 49 52 54 59 58 55 59 63 61 61 60 59 56
12 17 21 20 20 21 21 24 25 25 26 27 27 26 26 29 31 32 32 30 32 35 36 39 40 41 41 41 42 44 49 50 51 50 53 54 56 61 63 58 57 58 58
12 16 21 21 21 21 22 23 23 26 26 27 28 28 27 26 29 33 34 34 34 34 34 36 37 39 40 40 40 42 46 49 50 50 49 50 52 57 59 61 58 62 67
13 13 19 21 21 22 22 23 22 22 25 27 28 29 30 28 27 28 32 33 35 36 35 35 37 38 40 38 42 43 45 47 48 50 52 54 56 54 53 56 57 56 58
13 13 15 20 23 23 23 22 24 21 22 26 28 30 30 32 31 29 28 30 32 34 36 36 36 37 38 39 41 43 44 47 48 50 52 53 52 51 51 53 56 57 58
12 12 13 16 20 22 22 22 23 25 22 23 26 28 31 32 34 34 33 31 31 31 31 34 35 36 37 37 39 41 43 44 46 48 49 48 47 47 49 52 54 58 59
13 12 12 16 17 19 22 23 24 26 26 23 24 26 28 32 34 35 37 37 34 33 33 34 35 35 35 35 38 41 40 41 45 47 47 46 45 46 49 53 56 56 57
12 12 12 14 15 16 20 23 24 25 26 26 24 24 26 29 33 36 37 41 41 38 37 39 39 40 37 36 36 36 40 44 46 47 46 49 52 55 55 55 56 57 58
10 12 11 12 12 16 20 24 26 26 27 26 26 26 27 28 30 34 37 40 45 44 43 43 43 45 45 45 43 42 43 45 47 48 49 53 56 57 56 58 61 60 61
6 8 7 11 12 14 18 21 23 24 26 27 27 28 28 30 32 33 36 39 43 46 48 49 51 53 54 57 56 55 54 55 54 53 54 56 60 61 62 61 62 64 66
6 6 8 9 13 14 15 16 20 22 24 26 28 28 28 32 36 37 37 39 43 45 50 53 55 58 59 60 59 62 60 58 56 57 57 59 63 64 65 68 70 70 70
7 7 8 8 10 14 16 17 18 21 24 25 25 27 28 33 40 44 44 44 46 47 48 54 58 68 64 67 67 68 69 64 62 57 57 60 65 73 74 73 73 73 72
6 7 7 7 9 11 15 15 16 16 18 21 23 24 27 33 40 46 50 51 51 55 53 53 59 63 63 66 71 75 77 73 71 68 66 66 69 73 75 79 79 77 67
6 6 6 6 8 10 12 14 15 18 20 22 22 25 30 34 39 47 53 55 59 61 60 60 60 63 67 66 68 73 75 74 73 76 75 74 75 80 80 81 79 74 57
6 6 7 7 7 9 12 12 15 17 18 19 21 25 31 35 40 46 54 60 67 69 68 66 67 67 67 76 72 78 76 79 81 82 86 81 83 88 87 79 66 56 56